Time,TemperatureF,DewpointF,PressureIn,WindDirection,WindDirectionDegrees,WindSpeedMPH,WindSpeedGustMPH,Humidity,HourlyPrecipIn,Conditions,Clouds,dailyrainin,SoftwareType,DateUTC
2013-05-22 00:01:00,30.0,24.0,29.89,SSW,198,5.0,13.0,79,0.00,,,0.03,,2013-05-22 07:01:00,
2013-05-22 00:11:00,30.0,24.0,29.89,SSW,198,5.0,13.0,79,0.00,,,0.03,,2013-05-22 07:11:00,
2013-05-22 00:21:00,29.0,23.0,29.89,SSW,210,6.0,14.0,79,0.00,,,0.03,,2013-05-22 07:21:00,
2013-05-22 00:31:00,29.0,23.0,29.90,WSW,243,9.0,17.0,77,0.00,,,0.03,,2013-05-22 07:31:00,
2013-05-22 00:41:00,29.0,23.0,29.90,WSW,243,9.0,17.0,77,0.00,,,0.03,,2013-05-22 07:41:00,
2013-05-22 00:52:00,29.0,22.0,29.90,SW,234,4.0,15.0,76,0.00,,,0.03,,2013-05-22 07:52:00,
2013-05-22 01:02:00,29.0,23.0,29.91,WSW,244,4.0,14.0,77,0.00,,,0.03,,2013-05-22 08:02:00,
2013-05-22 01:11:00,29.0,23.0,29.91,WSW,244,4.0,14.0,77,0.00,,,0.03,,2013-05-22 08:11:00,
2013-05-22 01:21:00,29.0,23.0,29.91,SW,221,6.0,15.0,78,0.00,,,0.03,,2013-05-22 08:21:00,
2013-05-22 01:31:00,29.0,24.0,29.91,SSW,196,4.0,8.0,81,0.00,,,0.03,,2013-05-22 08:31:00,
2013-05-22 01:41:00,29.0,24.0,29.91,SSW,196,4.0,8.0,81,0.00,,,0.03,,2013-05-22 08:41:00,
2013-05-22 01:51:00,29.0,24.0,29.90,SSW,206,4.0,10.0,82,0.00,,,0.03,,2013-05-22 08:51:00,
2013-05-22 02:01:00,29.0,24.0,29.90,SSW,203,7.0,12.0,82,0.00,,,0.03,,2013-05-22 09:01:00,
2013-05-22 02:11:00,29.0,24.0,29.90,SSW,203,7.0,12.0,82,0.00,,,0.03,,2013-05-22 09:11:00,
2013-05-22 02:21:00,29.0,24.0,29.90,SSW,192,6.0,11.0,81,0.00,,,0.03,,2013-05-22 09:21:00,
2013-05-22 02:32:00,29.0,24.0,29.91,SSW,207,7.0,13.0,82,0.00,,,0.03,,2013-05-22 09:32:00,
2013-05-22 02:42:00,29.0,24.0,29.91,SSW,207,7.0,13.0,82,0.00,,,0.03,,2013-05-22 09:42:00,
2013-05-22 02:53:00,29.0,24.0,29.91,SSW,196,5.0,12.0,82,0.00,,,0.03,,2013-05-22 09:53:00,
2013-05-22 03:02:00,29.0,25.0,29.91,SW,223,4.0,11.0,83,0.00,,,0.03,,2013-05-22 10:02:00,
2013-05-22 03:12:00,29.0,25.0,29.91,SW,223,4.0,11.0,83,0.00,,,0.03,,2013-05-22 10:12:00,
2013-05-22 03:22:00,29.0,25.0,29.91,SSW,194,4.0,12.0,85,0.00,,,0.03,,2013-05-22 10:22:00,
2013-05-22 03:32:00,29.0,25.0,29.90,SSW,206,6.0,15.0,84,0.00,,,0.03,,2013-05-22 10:32:00,
2013-05-22 03:42:00,29.0,25.0,29.90,SSW,206,6.0,15.0,84,0.00,,,0.03,,2013-05-22 10:42:00,
2013-05-22 03:52:00,30.0,25.0,29.91,SSW,196,6.0,17.0,80,0.00,,,0.03,,2013-05-22 10:52:00,
2013-05-22 04:02:00,29.0,24.0,29.90,South,186,4.0,11.0,81,0.00,,,0.03,,2013-05-22 11:02:00,
2013-05-22 04:11:00,29.0,24.0,29.90,South,186,4.0,11.0,81,0.00,,,0.03,,2013-05-22 11:11:00,
2013-05-22 04:21:00,30.0,24.0,29.90,West,275,7.0,15.0,79,0.00,,,0.03,,2013-05-22 11:21:00,
2013-05-22 04:32:00,30.0,24.0,29.90,SW,223,5.0,13.0,79,0.00,,,0.03,,2013-05-22 11:32:00,
2013-05-22 04:41:00,30.0,24.0,29.90,SW,223,5.0,13.0,79,0.00,,,0.03,,2013-05-22 11:41:00,
2013-05-22 04:52:00,30.0,24.0,29.90,SW,221,8.0,16.0,78,0.00,,,0.03,,2013-05-22 11:52:00,
2013-05-22 05:02:00,29.0,23.0,29.90,South,178,11.0,21.0,79,0.00,,,0.03,,2013-05-22 12:02:00,
2013-05-22 05:11:00,29.0,23.0,29.90,South,178,11.0,21.0,79,0.00,,,0.03,,2013-05-22 12:11:00,
2013-05-22 05:22:00,29.0,25.0,29.91,South,185,5.0,13.0,84,0.00,,,0.03,,2013-05-22 12:22:00,
2013-05-22 05:32:00,28.0,24.0,29.91,SW,223,6.0,11.0,86,0.00,,,0.03,,2013-05-22 12:32:00,
2013-05-22 05:42:00,28.0,24.0,29.91,SW,223,6.0,11.0,86,0.00,,,0.03,,2013-05-22 12:42:00,
2013-05-22 05:52:00,28.0,25.0,29.90,SSW,196,6.0,16.0,90,0.00,,,0.03,,2013-05-22 12:52:00,
2013-05-22 06:01:00,28.0,26.0,29.91,SW,230,5.0,12.0,91,0.00,,,0.03,,2013-05-22 13:01:00,
2013-05-22 06:11:00,28.0,26.0,29.91,SW,230,5.0,12.0,91,0.00,,,0.03,,2013-05-22 13:11:00,
2013-05-22 06:21:00,27.0,25.0,29.91,SSW,213,7.0,13.0,92,0.00,,,0.03,,2013-05-22 13:21:00,
2013-05-22 06:31:00,28.0,26.0,29.91,SSW,196,8.0,16.0,92,0.00,,,0.01,,2013-05-22 13:31:00,
2013-05-22 06:41:00,28.0,26.0,29.91,SSW,196,8.0,16.0,92,0.00,,,0.01,,2013-05-22 13:41:00,
2013-05-22 06:52:00,28.0,26.0,29.91,SSW,209,7.0,12.0,92,0.00,,,0.01,,2013-05-22 13:52:00,
2013-05-22 07:02:00,28.0,26.0,29.91,SSW,192,8.0,14.0,92,0.00,,,0.01,,2013-05-22 14:02:00,
2013-05-22 07:11:00,28.0,26.0,29.91,SSW,192,8.0,14.0,92,0.00,,,0.01,,2013-05-22 14:11:00,
2013-05-22 07:21:00,28.0,26.0,29.91,South,186,10.0,16.0,92,0.00,,,0.01,,2013-05-22 14:21:00,
2013-05-22 07:32:00,28.0,26.0,29.92,SSW,206,9.0,15.0,92,0.00,,,0.01,,2013-05-22 14:32:00,
2013-05-22 07:41:00,28.0,26.0,29.92,SSW,206,9.0,15.0,92,0.00,,,0.01,,2013-05-22 14:41:00,
2013-05-22 07:52:00,29.0,27.0,29.93,South,176,5.0,12.0,93,0.00,,,0.01,,2013-05-22 14:52:00,
2013-05-22 08:01:00,29.0,27.0,29.93,SSW,210,7.0,12.0,93,0.00,,,0.01,,2013-05-22 15:01:00,
2013-05-22 08:11:00,29.0,27.0,29.93,SSW,210,7.0,12.0,93,0.00,,,0.01,,2013-05-22 15:11:00,
2013-05-22 08:21:00,29.0,27.0,29.93,SSW,205,4.0,14.0,92,0.00,,,0.01,,2013-05-22 15:21:00,
2013-05-22 08:32:00,30.0,28.0,29.93,South,186,5.0,13.0,93,0.00,,,0.01,,2013-05-22 15:32:00,
2013-05-22 08:42:00,30.0,28.0,29.93,South,186,5.0,13.0,93,0.00,,,0.01,,2013-05-22 15:42:00,
2013-05-22 08:53:00,30.0,28.0,29.94,SW,214,5.0,9.0,93,0.00,,,0.01,,2013-05-22 15:53:00,
2013-05-22 09:03:00,30.0,28.0,29.94,South,184,8.0,14.0,93,0.00,,,0.01,,2013-05-22 16:03:00,
2013-05-22 09:12:00,30.0,28.0,29.94,South,184,8.0,14.0,93,0.00,,,0.01,,2013-05-22 16:12:00,
2013-05-22 09:23:00,30.0,28.0,29.94,South,183,5.0,9.0,93,0.00,,,0.01,,2013-05-22 16:23:00,
2013-05-22 09:32:00,31.0,29.0,29.94,South,182,7.0,13.0,93,0.00,,,0.01,,2013-05-22 16:32:00,
2013-05-22 09:42:00,31.0,29.0,29.94,South,182,7.0,13.0,93,0.00,,,0.01,,2013-05-22 16:42:00,
2013-05-22 09:52:00,31.0,29.0,29.95,West,259,7.0,14.0,92,0.00,,,0.01,,2013-05-22 16:52:00,
2013-05-22 10:02:00,32.0,30.0,29.94,South,189,4.0,11.0,91,0.00,,,0.01,,2013-05-22 17:02:00,
2013-05-22 10:11:00,32.0,30.0,29.94,South,189,4.0,11.0,91,0.00,,,0.01,,2013-05-22 17:11:00,
2013-05-22 10:22:00,33.0,30.0,29.94,SSW,207,4.0,12.0,89,0.00,,,0.01,,2013-05-22 17:22:00,
2013-05-22 10:32:00,33.0,30.0,29.93,SW,223,7.0,13.0,87,0.01,,,0.02,,2013-05-22 17:32:00,
2013-05-22 10:42:00,33.0,30.0,29.93,SW,223,7.0,13.0,87,0.01,,,0.02,,2013-05-22 17:42:00,
2013-05-22 10:53:00,34.0,30.0,29.94,SW,215,7.0,13.0,85,0.02,,,0.03,,2013-05-22 17:53:00,
2013-05-22 11:02:00,34.0,30.0,29.94,SW,227,7.0,16.0,84,0.02,,,0.03,,2013-05-22 18:02:00,
2013-05-22 11:14:00,34.0,30.0,29.94,SW,227,7.0,16.0,84,0.02,,,0.03,,2013-05-22 18:14:00,
2013-05-22 11:22:00,34.0,30.0,29.94,WSW,253,6.0,13.0,84,0.03,,,0.04,,2013-05-22 18:22:00,
2013-05-22 11:33:00,35.0,30.0,29.95,SSW,202,7.0,16.0,83,0.02,,,0.04,,2013-05-22 18:33:00,
2013-05-22 11:41:00,35.0,30.0,29.95,SSW,202,7.0,16.0,83,0.02,,,0.04,,2013-05-22 18:41:00,
2013-05-22 11:52:00,35.0,31.0,29.95,SW,214,6.0,13.0,86,0.01,,,0.04,,2013-05-22 18:52:00,
2013-05-22 12:02:00,34.0,31.0,29.95,WSW,244,6.0,13.0,87,0.01,,,0.04,,2013-05-22 19:02:00,
2013-05-22 12:11:00,34.0,31.0,29.95,WSW,244,6.0,13.0,87,0.01,,,0.04,,2013-05-22 19:11:00,
2013-05-22 12:21:00,35.0,31.0,29.95,South,190,6.0,13.0,86,0.00,,,0.04,,2013-05-22 19:21:00,
2013-05-22 12:31:00,36.0,32.0,29.95,SSW,205,6.0,14.0,86,0.00,,,0.04,,2013-05-22 19:31:00,
2013-05-22 12:41:00,36.0,31.0,29.96,SW,219,6.0,11.0,83,0.00,,,0.04,,2013-05-22 19:41:00,
2013-05-22 12:52:00,36.0,31.0,29.96,SW,219,6.0,11.0,83,0.00,,,0.04,,2013-05-22 19:52:00,
2013-05-22 13:02:00,36.0,32.0,29.96,WSW,253,5.0,10.0,84,0.00,,,0.04,,2013-05-22 20:02:00,
2013-05-22 13:11:00,36.0,32.0,29.96,WSW,253,5.0,10.0,84,0.00,,,0.04,,2013-05-22 20:11:00,
2013-05-22 13:21:00,36.0,32.0,29.96,SW,229,4.0,9.0,85,0.00,,,0.04,,2013-05-22 20:21:00,
2013-05-22 13:32:00,35.0,32.0,29.97,WSW,237,6.0,16.0,87,0.00,,,0.04,,2013-05-22 20:32:00,
2013-05-22 13:41:00,35.0,32.0,29.97,WSW,237,6.0,16.0,87,0.00,,,0.04,,2013-05-22 20:41:00,
2013-05-22 13:51:00,35.0,32.0,29.96,SW,215,5.0,9.0,89,0.00,,,0.04,,2013-05-22 20:51:00,
2013-05-22 14:01:00,36.0,33.0,29.96,WSW,246,4.0,7.0,89,0.00,,,0.04,,2013-05-22 21:01:00,
2013-05-22 14:11:00,36.0,33.0,29.96,WSW,246,4.0,7.0,89,0.00,,,0.04,,2013-05-22 21:11:00,
2013-05-22 14:21:00,36.0,32.0,29.97,WSW,242,4.0,14.0,86,0.00,,,0.04,,2013-05-22 21:21:00,
2013-05-22 14:32:00,36.0,32.0,29.98,SW,223,6.0,11.0,86,0.00,,,0.04,,2013-05-22 21:32:00,
2013-05-22 14:42:00,36.0,32.0,29.98,SW,223,6.0,11.0,86,0.00,,,0.04,,2013-05-22 21:42:00,
2013-05-22 14:52:00,35.0,32.0,29.98,WNW,286,3.0,11.0,87,0.00,,,0.04,,2013-05-22 21:52:00,
2013-05-22 15:03:00,37.0,33.0,29.98,SW,223,9.0,16.0,85,0.00,,,0.04,,2013-05-22 22:03:00,
2013-05-22 15:12:00,37.0,33.0,29.98,SW,223,9.0,16.0,85,0.00,,,0.04,,2013-05-22 22:12:00,
2013-05-22 15:22:00,37.0,33.0,29.98,West,281,6.0,16.0,84,0.00,,,0.04,,2013-05-22 22:22:00,
2013-05-22 15:33:00,37.0,34.0,29.98,SW,236,4.0,18.0,88,0.01,,,0.05,,2013-05-22 22:33:00,
2013-05-22 15:42:00,37.0,34.0,29.98,SW,236,4.0,18.0,88,0.01,,,0.05,,2013-05-22 22:42:00,
2013-05-22 15:52:00,37.0,33.0,29.98,WSW,238,10.0,19.0,86,0.01,,,0.05,,2013-05-22 22:52:00,
2013-05-22 16:02:00,38.0,33.0,29.98,SW,219,8.0,14.0,83,0.01,,,0.05,,2013-05-22 23:02:00,
2013-05-22 16:12:00,38.0,33.0,29.98,SW,219,8.0,14.0,83,0.01,,,0.05,,2013-05-22 23:12:00,
2013-05-22 16:21:00,39.0,33.0,29.98,SW,225,8.0,18.0,80,0.01,,,0.05,,2013-05-22 23:21:00,
2013-05-22 16:32:00,39.0,34.0,29.98,SW,226,11.0,18.0,81,0.00,,,0.04,,2013-05-22 23:32:00,
2013-05-22 16:42:00,39.0,34.0,29.98,SW,226,11.0,18.0,81,0.00,,,0.04,,2013-05-22 23:42:00,
2013-05-22 16:52:00,40.0,33.0,29.98,SW,229,9.0,17.0,75,0.00,,,0.04,,2013-05-22 23:52:00,
2013-05-22 17:01:00,40.0,32.0,29.98,SW,215,8.0,16.0,73,0.00,,,0.04,,2013-05-23 00:01:00,
2013-05-22 17:11:00,40.0,32.0,29.98,SW,215,8.0,16.0,73,0.00,,,0.04,,2013-05-23 00:11:00,
2013-05-22 17:21:00,41.0,33.0,29.98,West,263,5.0,15.0,74,0.00,,,0.04,,2013-05-23 00:21:00,
2013-05-22 17:31:00,41.0,32.0,29.98,West,272,6.0,18.0,69,0.00,,,0.04,,2013-05-23 00:31:00,
2013-05-22 17:41:00,41.0,32.0,29.98,West,272,6.0,18.0,69,0.00,,,0.04,,2013-05-23 00:41:00,
2013-05-22 17:52:00,42.0,32.0,29.98,WSW,239,8.0,20.0,67,0.00,,,0.04,,2013-05-23 00:52:00,
2013-05-22 18:01:00,42.0,31.0,29.98,WSW,257,8.0,18.0,66,0.00,,,0.04,,2013-05-23 01:01:00,
2013-05-22 18:11:00,42.0,31.0,29.98,WSW,257,8.0,18.0,66,0.00,,,0.04,,2013-05-23 01:11:00,
2013-05-22 18:21:00,41.0,31.0,29.98,WSW,250,6.0,18.0,66,0.00,,,0.04,,2013-05-23 01:21:00,
2013-05-22 18:32:00,42.0,31.0,29.98,WNW,285,9.0,21.0,66,0.00,,,0.04,,2013-05-23 01:32:00,
2013-05-22 18:41:00,41.0,30.0,29.98,WSW,255,7.0,18.0,65,0.00,,,0.04,,2013-05-23 01:41:00,
2013-05-22 18:52:00,41.0,30.0,29.98,WSW,255,7.0,18.0,65,0.00,,,0.04,,2013-05-23 01:52:00,
2013-05-22 19:01:00,41.0,31.0,29.98,WSW,249,8.0,17.0,67,0.00,,,0.04,,2013-05-23 02:01:00,
2013-05-22 19:11:00,41.0,31.0,29.98,WSW,249,8.0,17.0,67,0.00,,,0.04,,2013-05-23 02:11:00,
2013-05-22 19:21:00,41.0,31.0,29.98,West,259,7.0,15.0,66,0.00,,,0.04,,2013-05-23 02:21:00,
2013-05-22 19:31:00,40.0,31.0,29.98,WSW,250,8.0,17.0,69,0.00,,,0.04,,2013-05-23 02:31:00,
2013-05-22 19:42:00,40.0,31.0,29.98,WSW,250,8.0,17.0,69,0.00,,,0.04,,2013-05-23 02:42:00,
2013-05-22 19:51:00,40.0,31.0,29.98,WSW,250,8.0,17.0,69,0.00,,,0.04,,2013-05-23 02:51:00,
2013-05-22 20:01:00,39.0,30.0,29.98,SW,221,5.0,15.0,71,0.00,,,0.04,,2013-05-23 03:01:00,
2013-05-22 20:11:00,39.0,30.0,29.98,SW,221,5.0,15.0,71,0.00,,,0.04,,2013-05-23 03:11:00,
2013-05-22 20:21:00,38.0,30.0,29.98,WSW,246,6.0,16.0,72,0.00,,,0.04,,2013-05-23 03:21:00,
2013-05-22 20:33:00,38.0,30.0,29.99,SW,214,1.0,9.0,73,0.00,,,0.04,,2013-05-23 03:33:00,
2013-05-22 20:43:00,38.0,30.0,29.99,SW,214,1.0,9.0,73,0.00,,,0.04,,2013-05-23 03:43:00,
2013-05-22 20:53:00,37.0,30.0,29.99,SSW,209,0.0,3.0,75,0.00,,,0.04,,2013-05-23 03:53:00,
2013-05-22 21:00:00,37.0,30.0,29.98,West,268,3.0,7.0,77,0.00,,,0.04,,2013-05-23 04:00:00,
2013-05-22 21:02:00,38.0,31.0,29.99,WSW,238,1.0,7.0,75,0.00,,,0.04,,2013-05-23 04:02:00,
2013-05-22 21:12:00,38.0,31.0,29.99,WSW,238,1.0,7.0,75,0.00,,,0.04,,2013-05-23 04:12:00,
2013-05-22 21:22:00,37.0,30.0,29.98,West,268,3.0,7.0,77,0.00,,,0.04,,2013-05-23 04:22:00,
2013-05-22 21:33:00,37.0,30.0,29.98,West,268,3.0,7.0,77,0.00,,,0.04,,2013-05-23 04:33:00,
2013-05-22 21:42:00,37.0,30.0,29.98,West,268,3.0,7.0,77,0.00,,,0.04,,2013-05-23 04:42:00,
2013-05-22 21:52:00,37.0,30.0,29.98,West,268,3.0,7.0,77,0.00,,,0.04,,2013-05-23 04:52:00,
2013-05-22 22:32:00,35.0,30.0,30.01,SSW,207,3.0,8.0,82,0.00,,,0.04,,2013-05-23 05:32:00,
2013-05-22 22:43:00,34.0,29.0,30.00,South,172,2.0,7.0,82,0.00,,,0.04,,2013-05-23 05:43:00,
2013-05-22 22:52:00,34.0,29.0,30.00,South,172,2.0,7.0,82,0.00,,,0.04,,2013-05-23 05:52:00,
2013-05-22 23:02:00,34.0,29.0,30.00,South,179,4.0,8.0,83,0.00,,,0.04,,2013-05-23 06:02:00,
2013-05-22 23:11:00,34.0,29.0,30.00,South,179,4.0,8.0,83,0.00,,,0.04,,2013-05-23 06:11:00,
2013-05-22 23:21:00,34.0,29.0,30.00,South,182,4.0,8.0,83,0.00,,,0.04,,2013-05-23 06:21:00,
2013-05-22 23:31:00,33.0,29.0,30.00,SSW,207,0.0,5.0,84,0.00,,,0.04,,2013-05-23 06:31:00,
2013-05-22 23:41:00,33.0,29.0,30.00,SSW,207,0.0,5.0,84,0.00,,,0.04,,2013-05-23 06:41:00,
2013-05-22 23:52:00,32.0,28.0,29.99,SSW,207,1.0,2.0,85,0.00,,,0.04,,2013-05-23 06:52:00,